Regional Weather Roundup
Issued by NWS

Home | Current Version | Previous Version | Text Only | Print | Product List | Glossary Off
Versions: 1 2 3 4 5 6 7 8 9 10 11 12 13 14 15 16 17 18 19 20 21 22 23 24 25 26 27 28 29 30 31 32 33 34 35 36 37 38 39 40 41 42 43 44 45 46 47 48 49 50

000
ASUS43 KDTX 300810
RWRMI
MICHIGAN HOURLY REGIONAL WEATHER ROUNDUP
NATIONAL WEATHER SERVICE DETROIT/PONTIAC MI
400 AM EDT TUE SEP 30 2014

NOTE: "FAIR" INDICATES FEW OR NO CLOUDS BELOW 12,000 FEET WITH NO
SIGNIFICANT WEATHER AND/OR OBSTRUCTION TO VISIBILITY.

MIZ047>049-052>055-059>063-066>070-074>076-081>083-300900-
SOUTHEAST LOWER MICHIGAN

CITY           SKY/WX    TMP DP  RH WIND       PRES   REMARKS
ADRIAN         CLOUDY    57  54  89 N9        29.92R
ALMA           CLOUDY    51  48  91 NW6       29.96S
ANN ARBOR      CLOUDY    56  52  86 N10       29.89S
BAD AXE        DRIZZLE   51  51 100 N12G17    29.91S
CARO           DRIZZLE   52  51  95 N9        29.92S
DETROIT CITY   LGT RAIN N/A N/A N/A MISG        N/A
DETROIT        RAIN      58  56  93 NW8       29.90R FOG
FLINT          CLOUDY    54  51  90 NW9       29.94S FOG
GROSSE ILE     RAIN      63  61  94 NW6       29.86S
HILLSDALE      LGT RAIN  55  55 100 N8        29.93R
HOWELL         CLOUDY    51  50  95 NW10      29.93S FOG

CITY           SKY/WX    TMP DP  RH WIND       PRES   REMARKS
JACKSON        CLOUDY    52  50  93 VRB6      29.94R
LAMBERTVILLE   LGT RAIN  61  59  94 CALM      29.88F
LANSING        CLOUDY    50  47  89 NW5       29.96S
LAPEER         DRIZZLE   54  52  94 NW6       29.91S
MASON          CLOUDY    49  48  94 NW9       29.95R
MONROE         LGT RAIN  61  59  94 NW7       29.87S
MT. CLEMENS    CLOUDY    57  57 100 NW6       29.85F
PONTIAC        CLOUDY    53  51  93 NW13      29.89F FOG
PORT HOPE        N/A     55  53  93 VRB5      29.89R
PORT HURON     LGT RAIN  55  55 100 NW7       29.88S
TRI CITIES     CLOUDY    52  47  83 N9        29.96S
TROY           LGT RAIN  58  54  89 NW12      29.90S
SAGINAW HB     CLOUDY    50  50 100 NW9       29.94S
$$
MIZ043>046-050>051-056>058-064>065-071>073-077>080-300900-
SOUTHWEST LOWER MICHIGAN

CITY           SKY/WX    TMP DP  RH WIND       PRES   REMARKS
BATTLE CREEK   LGT RAIN  51  49  92 N8        29.97S FOG
BIG RAPIDS     CLOUDY    47  47 100 NW7       29.98F
COLDWATER      LGT RAIN  56  55  96 N8        29.94F
FREMONT        CLOUDY    47  46  96 NW6       30.00F
HOLLAND        CLOUDY    49  47  93 NW6       30.01F FOG
GRAND RAPIDS   CLOUDY    49  48  97 N8        29.99S
IONIA          CLOUDY    50  49  95 NW9       29.97S
KALAMAZOO      CLOUDY    50  47  89 N10       29.98S
LUDINGTON      CLOUDY    47  46  95 N6        30.03F
MARSHALL       CLOUDY    50  49  97 NW3       29.95S
MOUNT PLEASANT CLOUDY    51  48  89 NW5       29.96S
MUSKEGON       CLOUDY    49  44  83 N10       30.02S
SOUTH HAVEN    CLOUDY    50  48  93 N7        30.00S
$$
MIZ016>042-300900-
NORTHERN LOWER MICHIGAN

CITY           SKY/WX    TMP DP  RH WIND       PRES   REMARKS
ALPENA         LGT RAIN  46  45  96 N9        29.97S
BEAVER ISLAND  CLOUDY    46  42  86 NE9       30.04F
BELLAIRE       CLOUDY    46  43  90 N3        30.02S
CADILLAC       CLOUDY    46  45  99 N7        29.98S
CHARLEVOIX     CLOUDY    45  45  98 NE8       30.05S
FRANKFORT      CLOUDY    48  45  87 N8        30.03S
GAYLORD        CLOUDY    42  42 100 VRB6      29.99S FOG
GRAYLING       CLOUDY    46  45  95 N6        29.99S
HARBOR SPRINGS CLOUDY    44  41  90 N5        30.02F
HOUGHTON LAKE  CLOUDY    47  44  90 N9        29.98S
OSCODA         LGT RAIN  48  47  99 N12       29.94R
PELLSTON       CLOUDY    44  41  89 N6        30.03S
ROGERS CITY    CLOUDY    45  45 100 N12       30.00S
TRAVERSE CITY  LGT RAIN  49  46  90 N8        30.00F
$$
MIZ007>008-015-300900-
EASTERN UPPER MICHIGAN

CITY           SKY/WX    TMP DP  RH WIND       PRES   REMARKS
MACKINAC ISLAN CLOUDY    43  40  91 N8        30.02F
NEWBERRY       CLOUDY    40  39  95 N6        30.04F
S. S. MARIE    CLOUDY    43  36  76 NE5       30.03F
MUNISING         N/A     47  41  80 N15G24    30.09F
$$
MIZ004>006-011>014-085-300900-
CENTRAL UPPER MICHIGAN

CITY           SKY/WX    TMP DP  RH WIND       PRES   REMARKS
MANISTIQUE     CLOUDY    42  39  90 N12       30.06S
SAWYER-GWINN   CLOUDY    40  37  88 N9        30.10F WCI  34
$$
MIZ001>003-009>011-084-300900-
WESTERN UPPER MICHIGAN

CITY           SKY/WX    TMP DP  RH WIND       PRES   REMARKS
IRON MOUNTAIN  CLOUDY    41  37  86 N10       30.10F
HOUGHTON       CLOUDY    39  35  86 N3        30.15S
COPPER HARBOR    N/A     45  36  70 VRB5      30.16S
$$

ABBREVIATIONS USED IN REMARKS
   TC - TEMPERATURE IN CELSIUS
  WCI - WIND CHILL INDEX
   HX - HEAT INDEX
  VSB - VISIBILITY



USA.gov is the U.S. government's official web portal to all federal, state and local government web resources and services.